MICROMAS-2A

Last updated on Thu Apr 06 2023 01:03:45 GMT+0100 (British Summer Time)

1 43131U 18004W 23095.24649099 .05210679 24015-5 19676-2 0 9995 2 43131 97.3063 185.6513 0011060 270.1747 89.8277 16.24178149291777
UTC large
Height (km)
Speed (km/s)
/
Latitude / Longitude
Inclination (degrees)
Orbital Period (minutes)
Azimuth
Elevation
Range (km)
Doppler Factor

Next 0 passes for location: London (51.5072 / 0.1276)

Sorry there are no passes over London.